TimeCDT,TemperatureF,Dew PointF,Humidity,Sea Level PressureIn,VisibilityMPH,Wind Direction,Wind SpeedMPH,Gust SpeedMPH,PrecipitationIn,Events,Conditions,WindDirDegrees,DateUTC
12:14 AM,62.6,39.6,43,30.05,10.0,NNW,3.5,-,N/A,,Clear,340,2013-05-07 05:14:00
12:34 AM,62.8,39.2,42,30.06,10.0,North,3.5,-,N/A,,Clear,350,2013-05-07 05:34:00
12:53 AM,62.6,38.8,42,30.06,10.0,North,3.5,-,N/A,,Clear,350,2013-05-07 05:53:00
1:14 AM,62.6,38.7,41,30.06,10.0,NW,3.5,-,N/A,,Clear,310,2013-05-07 06:14:00
1:34 AM,60.6,40.1,47,30.06,10.0,NW,5.8,-,N/A,,Clear,310,2013-05-07 06:34:00
1:54 AM,61.9,38.3,42,30.05,10.0,WNW,4.6,-,N/A,,Clear,300,2013-05-07 06:54:00
2:15 AM,60.1,39.4,46,30.05,10.0,NW,3.5,-,N/A,,Clear,320,2013-05-07 07:15:00
2:35 AM,60.4,38.5,44,30.05,10.0,NW,3.5,-,N/A,,Clear,320,2013-05-07 07:35:00
3:14 AM,60.8,37.0,41,30.05,10.0,NW,3.5,-,N/A,,Clear,310,2013-05-07 08:14:00
3:34 AM,59.0,39.2,48,30.05,10.0,WNW,5.8,-,N/A,,Clear,300,2013-05-07 08:34:00
3:54 AM,56.7,40.5,55,30.05,10.0,WNW,5.8,-,N/A,,Clear,300,2013-05-07 08:54:00
4:14 AM,55.6,41.4,59,30.05,10.0,WNW,8.1,-,N/A,,Clear,300,2013-05-07 09:14:00
4:34 AM,55.4,41.4,59,30.05,10.0,NW,6.9,-,N/A,,Clear,320,2013-05-07 09:34:00
4:55 AM,55.8,41.0,58,30.05,10.0,NW,5.8,-,N/A,,Clear,320,2013-05-07 09:55:00
5:14 AM,55.9,41.2,58,30.06,10.0,NW,4.6,-,N/A,,Clear,310,2013-05-07 10:14:00
5:34 AM,55.2,41.4,60,30.06,10.0,NW,5.8,-,N/A,,Clear,310,2013-05-07 10:34:00
5:54 AM,55.0,41.4,60,30.06,10.0,NNW,4.6,-,N/A,,Clear,330,2013-05-07 10:54:00
6:14 AM,55.4,41.5,60,30.06,10.0,NNW,3.5,-,N/A,,Clear,340,2013-05-07 11:14:00
6:34 AM,55.8,41.4,58,30.07,10.0,North,3.5,-,N/A,,Clear,360,2013-05-07 11:34:00
6:54 AM,56.1,41.4,58,30.07,10.0,NNW,3.5,-,N/A,,Clear,330,2013-05-07 11:54:00
7:15 AM,55.6,41.7,60,30.08,10.0,NNW,3.5,-,N/A,,Clear,330,2013-05-07 12:15:00
7:34 AM,55.6,42.4,61,30.08,10.0,NNW,4.6,-,N/A,,Clear,330,2013-05-07 12:34:00
7:54 AM,57.0,44.6,63,30.08,10.0,NNW,3.5,-,N/A,,Clear,330,2013-05-07 12:54:00
8:15 AM,60.1,45.1,58,30.08,10.0,Calm,Calm,-,N/A,,Clear,0,2013-05-07 13:15:00
8:35 AM,63.0,44.4,51,30.09,10.0,North,3.5,-,N/A,,Clear,350,2013-05-07 13:35:00
8:54 AM,65.7,43.7,45,30.09,10.0,NNW,3.5,-,N/A,,Clear,340,2013-05-07 13:54:00
9:15 AM,67.6,42.8,41,30.09,10.0,North,3.5,-,N/A,,Clear,360,2013-05-07 14:15:00
9:34 AM,69.4,40.5,35,30.09,10.0,North,4.6,-,N/A,,Clear,350,2013-05-07 14:34:00
9:55 AM,71.1,37.9,30,30.08,10.0,Calm,Calm,-,N/A,,Clear,0,2013-05-07 14:55:00
10:14 AM,71.2,34.3,26,30.08,10.0,Calm,Calm,-,N/A,,Clear,0,2013-05-07 15:14:00
10:34 AM,72.1,35.6,26,30.07,10.0,North,3.5,-,N/A,,Clear,350,2013-05-07 15:34:00
10:54 AM,73.2,31.6,22,30.07,10.0,NNE,3.5,-,N/A,,Clear,20,2013-05-07 15:54:00
11:15 AM,74.1,32.2,21,30.07,10.0,East,3.5,-,N/A,,Clear,90,2013-05-07 16:15:00
11:34 AM,74.3,21.0,14,30.07,10.0,SSE,5.8,-,N/A,,Clear,150,2013-05-07 16:34:00
11:55 AM,75.0,22.5,14,30.06,10.0,NE,3.5,-,N/A,,Clear,50,2013-05-07 16:55:00
12:15 PM,75.2,25.9,16,30.06,10.0,NNE,8.1,-,N/A,,Clear,30,2013-05-07 17:15:00
12:55 PM,76.1,21.0,13,30.05,10.0,Calm,Calm,-,N/A,,Scattered Clouds,0,2013-05-07 17:55:00
1:14 PM,75.6,19.9,12,30.05,10.0,South,4.6,-,N/A,,Scattered Clouds,170,2013-05-07 18:14:00
1:35 PM,74.8,21.4,14,30.04,10.0,SSE,6.9,-,N/A,,Mostly Cloudy,150,2013-05-07 18:35:00
1:55 PM,74.3,23.2,15,30.04,10.0,SW,4.6,-,N/A,,Overcast,220,2013-05-07 18:55:00
2:14 PM,76.1,30.0,18,30.04,10.0,WNW,8.1,-,N/A,,Overcast,300,2013-05-07 19:14:00
2:35 PM,75.4,30.0,19,30.03,10.0,NW,9.2,-,N/A,,Overcast,310,2013-05-07 19:35:00
2:55 PM,74.3,30.2,20,30.03,10.0,NW,5.8,-,N/A,,Overcast,310,2013-05-07 19:55:00
3:14 PM,74.3,28.9,19,30.03,10.0,WNW,4.6,-,N/A,,Mostly Cloudy,290,2013-05-07 20:14:00
3:34 PM,74.3,31.6,21,30.02,10.0,NNW,5.8,-,N/A,,Mostly Cloudy,330,2013-05-07 20:34:00
3:55 PM,73.9,30.4,20,30.02,10.0,NW,3.5,-,N/A,,Mostly Cloudy,310,2013-05-07 20:55:00
4:15 PM,73.9,30.2,20,30.02,10.0,NW,4.6,-,N/A,,Overcast,320,2013-05-07 21:15:00
4:34 PM,74.7,27.9,18,30.01,10.0,Calm,Calm,-,N/A,,Overcast,0,2013-05-07 21:34:00
4:55 PM,76.3,24.8,15,30.01,10.0,Calm,Calm,-,N/A,,Overcast,0,2013-05-07 21:55:00
5:15 PM,76.8,22.3,13,30.01,10.0,Calm,Calm,-,N/A,,Overcast,0,2013-05-07 22:15:00
5:34 PM,77.2,28.8,17,30.01,10.0,NW,4.6,-,N/A,,Overcast,310,2013-05-07 22:34:00
5:55 PM,77.2,24.8,14,30.01,10.0,West,5.8,-,N/A,,Overcast,280,2013-05-07 22:55:00
6:15 PM,77.5,21.7,13,30.01,10.0,WSW,8.1,-,N/A,,Overcast,250,2013-05-07 23:15:00
6:34 PM,76.5,23.9,14,30.00,10.0,SW,3.5,-,N/A,,Scattered Clouds,220,2013-05-07 23:34:00
6:55 PM,75.2,32.4,21,30.00,10.0,WNW,5.8,-,N/A,,Clear,290,2013-05-07 23:55:00
7:14 PM,74.1,34.2,23,30.00,10.0,West,5.8,-,N/A,,Clear,280,2013-05-08 00:14:00
7:34 PM,72.9,37.0,27,30.00,10.0,WNW,3.5,-,N/A,,Clear,290,2013-05-08 00:34:00
7:55 PM,72.5,32.9,23,30.00,10.0,West,4.6,-,N/A,,Clear,280,2013-05-08 00:55:00
8:14 PM,71.6,33.6,25,30.00,10.0,WNW,4.6,-,N/A,,Clear,290,2013-05-08 01:14:00
8:34 PM,69.6,36.1,29,30.00,10.0,West,4.6,-,N/A,,Clear,280,2013-05-08 01:34:00
8:55 PM,69.6,36.9,30,30.01,10.0,NW,4.6,-,N/A,,Clear,310,2013-05-08 01:55:00
9:14 PM,68.4,37.8,33,30.01,10.0,Calm,Calm,-,N/A,,Clear,0,2013-05-08 02:14:00
9:35 PM,68.2,36.5,31,30.01,10.0,Calm,Calm,-,N/A,,Clear,0,2013-05-08 02:35:00
9:54 PM,67.6,36.9,32,30.01,10.0,Calm,Calm,-,N/A,,Clear,0,2013-05-08 02:54:00
10:14 PM,68.2,37.0,32,30.01,10.0,Calm,Calm,-,N/A,,Clear,0,2013-05-08 03:14:00
10:34 PM,67.3,35.2,31,30.01,10.0,Calm,Calm,-,N/A,,Clear,0,2013-05-08 03:34:00
10:55 PM,66.4,37.2,34,30.01,7.0,Calm,Calm,-,N/A,,Clear,0,2013-05-08 03:55:00
11:14 PM,65.3,37.6,36,30.01,10.0,Calm,Calm,-,N/A,,Clear,0,2013-05-08 04:14:00
11:35 PM,65.1,37.8,36,30.01,10.0,Calm,Calm,-,N/A,,Clear,0,2013-05-08 04:35:00
11:55 PM,64.9,37.8,37,30.01,10.0,Calm,Calm,-,N/A,,Clear,0,2013-05-08 04:55:00